Location: ??????????
(48.4699°N, 37.9573°E)
Time: 03:07:29
(UTC+00:00)

ATLAS 3B R/B - Pass Details

Date: 20 January 2021
Orbit: 1006 x 1189 km, 63.8° (Epoch: 24 February)

Event Time Altitude Azimuth Distance (km) Brightness Sun altitude
Rises 15:11:55 0° 316° (NW) 3,870 6.0 -10.5°
Reaches altitude 10° 15:14:39 10° 310° (NW) 2,938 5.5 -10.9°
Maximum altitude 15:21:09 43° 242° (WSW) 1,532 4.1 -11.9°
Drops below altitude 10° 15:27:52 10° 174° (S) 3,044 5.2 -13.0°
Sets 15:30:46 0° 168° (SSE) 4,023 5.8 -13.4°
